Previsão horária em Pligovki 1

Hoje, 5 Março, Sexta-feira

Tempo Temperatura Precipitação Vento Pressão Humidade
00:00 -6°C° 0 mm 3 m/s 744 mmHg 83%
01:00 -6°C° 0 mm 3 m/s 744 mmHg 83%
02:00 -6°C° 0 mm 2 m/s 745 mmHg 88%
03:00 -6°C° 0 mm 2 m/s 745 mmHg 87%
04:00 -6°C° 0 mm 2 m/s 745 mmHg 87%
05:00 -6°C° 0 mm 2 m/s 745 mmHg 86%
06:00 -6°C° 0 mm 2 m/s 745 mmHg 84%
07:00 -6°C° 0 mm 3 m/s 745 mmHg 82%
08:00 -5°C° 0 mm 4 m/s 745 mmHg 80%
09:00 -5°C° 0.1 mm 4 m/s 746 mmHg 74%
10:00 -4°C° 0.1 mm 4 m/s 746 mmHg 68%
11:00 -4°C° 0.1 mm 5 m/s 746 mmHg 61%
12:00 -4°C° 0.2 mm 5 m/s 746 mmHg 62%
13:00 -4°C° 0.2 mm 5 m/s 747 mmHg 62%
14:00 -4°C° 0.2 mm 6 m/s 747 mmHg 62%
15:00 -4°C° 0.1 mm 5 m/s 747 mmHg 60%
16:00 -4°C° 0.1 mm 4 m/s 748 mmHg 57%
17:00 -4°C° 0.1 mm 4 m/s 748 mmHg 55%
18:00 -5°C° 0 mm 3 m/s 749 mmHg 58%
19:00 -6°C° 0 mm 3 m/s 749 mmHg 61%
20:00 -6°C° 0 mm 2 m/s 750 mmHg 64%
21:00 -6°C° 0 mm 2 m/s 750 mmHg 65%
22:00 -6°C° 0 mm 2 m/s 751 mmHg 66%
23:00 -6°C° 0 mm 2 m/s 751 mmHg 68%

Amanhã, 6 Março, Sábado

Tempo Temperatura Precipitação Vento Pressão Humidade
00:00 -4°C° 0 mm 1 m/s 751 mmHg 67%
01:00 -4°C° 0 mm 1 m/s 751 mmHg 67%
02:00 -6°C° 0 mm 1 m/s 752 mmHg 67%
03:00 -6°C° 0 mm 1 m/s 752 mmHg 67%
04:00 -6°C° 0 mm 1 m/s 752 mmHg 67%
05:00 -6°C° 0 mm 1 m/s 752 mmHg 68%
06:00 -7°C° 0 mm 2 m/s 752 mmHg 68%
07:00 -6°C° 0 mm 2 m/s 752 mmHg 68%
08:00 -6°C° 0 mm 2 m/s 753 mmHg 68%
09:00 -6°C° 0 mm 3 m/s 753 mmHg 63%
10:00 -5°C° 0 mm 3 m/s 753 mmHg 59%
11:00 -5°C° 0 mm 3 m/s 753 mmHg 55%
12:00 -4°C° 0 mm 4 m/s 753 mmHg 51%
13:00 -3°C° 0 mm 4 m/s 752 mmHg 48%
14:00 -3°C° 0 mm 4 m/s 752 mmHg 45%
15:00 -3°C° 0 mm 4 m/s 752 mmHg 47%
16:00 -3°C° 0 mm 4 m/s 751 mmHg 49%
17:00 -4°C° 0 mm 4 m/s 751 mmHg 51%
18:00 -4°C° 0 mm 4 m/s 750 mmHg 52%
19:00 -5°C° 0 mm 5 m/s 749 mmHg 54%
20:00 -5°C° 0 mm 5 m/s 749 mmHg 55%
21:00 -5°C° 0 mm 6 m/s 748 mmHg 58%
22:00 -5°C° 0 mm 6 m/s 747 mmHg 61%
23:00 -5°C° 0 mm 6 m/s 746 mmHg 64%

Depois de amanhã, 7 Março, Domingo

Tempo Temperatura Precipitação Vento Pressão Humidade
00:00 -6°C° 0 mm 7 m/s 745 mmHg 65%
01:00 -4°C° 0 mm 7 m/s 744 mmHg 66%
02:00 -5°C° 0 mm 8 m/s 742 mmHg 67%
03:00 -5°C° 0.2 mm 8 m/s 741 mmHg 74%
04:00 -5°C° 0.2 mm 9 m/s 740 mmHg 82%
05:00 -5°C° 0.2 mm 9 m/s 738 mmHg 89%
06:00 -5°C° 0.6 mm 8 m/s 738 mmHg 81%
07:00 -5°C° 0.6 mm 8 m/s 738 mmHg 74%
08:00 -4°C° 0.6 mm 7 m/s 738 mmHg 66%
09:00 -4°C° 0 mm 7 m/s 739 mmHg 57%
10:00 -6°C° 0 mm 8 m/s 739 mmHg 47%
11:00 -6°C° 0 mm 8 m/s 740 mmHg 38%
12:00 -6°C° 0 mm 8 m/s 740 mmHg 41%
13:00 -5°C° 0 mm 8 m/s 740 mmHg 43%
14:00 -5°C° 0 mm 9 m/s 740 mmHg 46%
15:00 -5°C° 0.1 mm 8 m/s 740 mmHg 49%
16:00 -5°C° 0.1 mm 8 m/s 739 mmHg 53%
17:00 -4°C° 0.1 mm 7 m/s 738 mmHg 57%
18:00 -6°C° 0 mm 7 m/s 738 mmHg 59%
19:00 -6°C° 0 mm 7 m/s 738 mmHg 62%
20:00 -7°C° 0 mm 7 m/s 738 mmHg 64%
21:00 -7°C° 0.1 mm 7 m/s 738 mmHg 70%
22:00 -7°C° 0.1 mm 7 m/s 739 mmHg 75%
23:00 -8°C° 0.1 mm 7 m/s 739 mmHg 81%

8 Março, Segunda-feira

Tempo Temperatura Precipitação Vento Pressão Humidade
00:00 -9°C° 0.1 mm 6 m/s 739 mmHg 76%
01:00 -10°C° 0.1 mm 5 m/s 740 mmHg 72%
02:00 -10°C° 0.1 mm 4 m/s 741 mmHg 67%
03:00 -9°C° 0 mm 3 m/s 741 mmHg 69%
04:00 -9°C° 0 mm 3 m/s 741 mmHg 71%
05:00 -10°C° 0 mm 3 m/s 742 mmHg 74%
06:00 -10°C° 0 mm 3 m/s 742 mmHg 73%
07:00 -9°C° 0 mm 3 m/s 743 mmHg 72%
08:00 -10°C° 0 mm 4 m/s 743 mmHg 71%
09:00 -8°C° 0 mm 3 m/s 744 mmHg 68%
10:00 -8°C° 0 mm 3 m/s 744 mmHg 65%
11:00 -7°C° 0 mm 3 m/s 745 mmHg 63%
12:00 -6°C° 0 mm 3 m/s 745 mmHg 62%
13:00 -7°C° 0 mm 4 m/s 745 mmHg 61%
14:00 -7°C° 0 mm 4 m/s 746 mmHg 60%
15:00 -7°C° 0 mm 4 m/s 746 mmHg 63%
16:00 -8°C° 0 mm 4 m/s 746 mmHg 66%
17:00 -8°C° 0 mm 4 m/s 746 mmHg 69%
18:00 -9°C° 0 mm 4 m/s 746 mmHg 71%
19:00 -10°C° 0 mm 4 m/s 747 mmHg 73%
20:00 -11°C° 0 mm 4 m/s 748 mmHg 75%
21:00 -11°C° 0 mm 4 m/s 748 mmHg 77%
22:00 -11°C° 0 mm 4 m/s 749 mmHg 78%
23:00 -12°C° 0 mm 4 m/s 749 mmHg 80%

9 Março, Terça-feira

Tempo Temperatura Precipitação Vento Pressão Humidade
00:00 -12°C° 0 mm 4 m/s 750 mmHg 80%
01:00 -14°C° 0 mm 4 m/s 750 mmHg 80%
02:00 -14°C° 0 mm 4 m/s 751 mmHg 79%
03:00 -13°C° 0 mm 3 m/s 751 mmHg 80%
04:00 -14°C° 0 mm 3 m/s 751 mmHg 81%
05:00 -14°C° 0 mm 3 m/s 752 mmHg 81%
06:00 -14°C° 0 mm 3 m/s 752 mmHg 81%
07:00 -14°C° 0 mm 3 m/s 753 mmHg 80%
08:00 -15°C° 0 mm 3 m/s 753 mmHg 79%
09:00 -14°C° 0 mm 3 m/s 753 mmHg 73%
10:00 -10°C° 0 mm 2 m/s 754 mmHg 67%
11:00 -9°C° 0 mm 2 m/s 754 mmHg 60%
12:00 -8°C° 0 mm 2 m/s 754 mmHg 56%
13:00 -8°C° 0 mm 2 m/s 754 mmHg 52%
14:00 -7°C° 0 mm 2 m/s 754 mmHg 48%
15:00 -7°C° 0 mm 2 m/s 754 mmHg 49%
16:00 -7°C° 0 mm 2 m/s 754 mmHg 50%
17:00 -7°C° 0 mm 2 m/s 754 mmHg 51%
18:00 -7°C° 0 mm 2 m/s 754 mmHg 54%
19:00 -8°C° 0 mm 3 m/s 754 mmHg 57%
20:00 -8°C° 0 mm 3 m/s 754 mmHg 60%
21:00 -8°C° 0 mm 3 m/s 754 mmHg 60%
22:00 -8°C° 0 mm 3 m/s 754 mmHg 61%
23:00 -9°C° 0 mm 4 m/s 754 mmHg 61%

10 Março, Quarta-feira

Tempo Temperatura Precipitação Vento Pressão Humidade
00:00 -9°C° 0 mm 4 m/s 753 mmHg 60%
01:00 -9°C° 0 mm 4 m/s 753 mmHg 60%
02:00 -9°C° 0 mm 4 m/s 753 mmHg 59%
03:00 -9°C° 0 mm 4 m/s 753 mmHg 59%
04:00 -9°C° 0 mm 4 m/s 752 mmHg 58%
05:00 -9°C° 0 mm 4 m/s 752 mmHg 58%
06:00 -10°C° 0 mm 5 m/s 752 mmHg 57%
07:00 -8°C° 0 mm 5 m/s 752 mmHg 57%
08:00 -8°C° 0 mm 5 m/s 752 mmHg 56%
09:00 -7°C° 0 mm 5 m/s 752 mmHg 55%
10:00 -6°C° 0 mm 5 m/s 752 mmHg 54%
11:00 -6°C° 0 mm 5 m/s 752 mmHg 53%
12:00 -5°C° 0 mm 5 m/s 751 mmHg 53%
13:00 -4°C° 0 mm 5 m/s 751 mmHg 53%
14:00 -4°C° 0 mm 5 m/s 751 mmHg 53%
15:00 -3°C° 0 mm 4 m/s 751 mmHg 55%
16:00 -3°C° 0 mm 4 m/s 750 mmHg 57%
17:00 -2°C° 0 mm 3 m/s 750 mmHg 59%
18:00 -4°C° 0 mm 3 m/s 750 mmHg 61%
19:00 -4°C° 0 mm 3 m/s 750 mmHg 63%
20:00 -5°C° 0 mm 3 m/s 750 mmHg 65%
21:00 -5°C° 0 mm 3 m/s 750 mmHg 66%
22:00 -5°C° 0 mm 3 m/s 750 mmHg 67%
23:00 -5°C° 0 mm 3 m/s 749 mmHg 68%
Mostrar mais

Necessitamos do seu Consentimento

A Meteoprog e os seus Fornecedores de Serviços podem armazenar e aceder a dados pessoais como cookies, identificadores do dispositivo ou outras tecnologias semelhantes existentes no seu dispositivo e processar estes dados para personalizar conteúdos e anúncios, assim como funcionalidades nas redes sociais e análise de tráfego.

  • Armazenar e/ou aceder a informações no seu dispositivo

    Os cookies, identificadores do dispositivo ou outras informações podem ser armazenados ou acedidos no seu dispositivo, para os fins acima indicados.

  • Anúncios e conteúdos personalizados, medição de anúncios e conteúdos, dados sobre o público-alvo e desenvolvimento de produtos

    Os anúncios e os conteúdos podem ser personalizados com base num perfil. Podem ser adicionados dados adicionais para uma maior personalização dos anúncios e dos conteúdos. A eficácia dos anúncios e dos conteúdos pode ser medida. Podem ser obtidas informações sobre o público que visualizou os anúncios e os conteúdos. Estes dados podem ser usados para desenvolver ou melhorar sistemas, softwares ou a experiência do utilizador.

Ao clicar em "Eu concordo”, permitirá o uso de cookies, identificadores do dispositivo e web beacons mencionados ou outras tecnologias semelhantes. As configurações do navegador do seu dispositivo podem ser alteradas.

Para certos fins, podem ser invocados interesses legítimos ao invés de consentimento. Pode ler mais informação sobre este assunto na nossa Política de Privacidade e Cookies.